COSMOS 1275 DEB, 12671

Orbit data source: Space-Track

COSMOS 1275 DEB, 12671 is space debris in LEO originally from a launch on Thu, 04 Jun 1981 UTC launched from the Plesetsk Missile And Space Complex (PKMTR). Debris objects in space refer to the collection of defunct objects orbiting the Earth. Examples of debris include non-operational satellites, rocket bodies, and fragments generated from explosions, collisions, or faulty payload assembly.

Loading next visibility...
Identifier
12671, 1981-053AB
Orbit
LEO
Country
Flag of CISCIS
Related business
Manufacturer
Unknown
Mission
Spacecraft
Bus & Motor
Unknown
Mass
Unknown
Launch date (UTC)
1981-06-04 (44 years ago)
Launch vehicle
Unknown
Launch site
Plesetsk Missile And Space Complex (PKMTR)
Object type
Payload
Rocket body
Debris
Shape & HBR
Unknown
Radar Cross Section
Small (<0.1 m²)

Expand to show TLE details & history
Last TLE update: 7 hours ago

TLE from 7 hours ago
0 COSMOS 1275 DEB
1 12671U 81053AB  25260.89589242  .00001567  00000-0  86722-3 0  9993
2 12671  82.9064  44.6763 0018984 349.0366  11.0394 14.10681511241440
Epoch: 2025-09-17T21:30Z
TLE epoch observation values (Epoch: 2025-09-17T21:30:05.105Z)
Latitude
0.00006°
Longitude
85.08977°
Altitude
846.506 km
Speed
7.436 km/s
True Right ascension
02h 58m 42s
True Declination
0° 00' 00"
Sunlit
Object was in full shadow at epoch
Visualization orbit readout
Latitude
Unknown
Longitude
Unknown
Altitude
Unknown
Speed
Unknown
Apparent Right ascension
Unknown
Apparent Declination
Unknown
Sunlit
N/A
Visualization observer readout
Local Sidereal Time
21:32:20
Azimuth
Unknown
Elevation
Unknown
Doppler factor
Unknown
Orbital elements
Apogee altitude
867.871 km
Perigee altitude
840.412 km
Semi-major axis
7,232.278 km
Eccentricity
0.0019
Inclination
82.9064°
RAAN
44.6763°
Arg. of periapsis
349.0366°
True anomaly
11.08115°
Mean anomaly
11.0394°
Eccentric anomaly
11.06027°
Mean motion
3.52883 °/min
Orbital period
102.02 mins
BSTAR
0.00086722
Loading maneuver chart data...
Computing Atmospheric mass density...
Loading historical data...
Loading historical data...
Loading historical data...
Loading historical data...
Loading historical data...
Loading historical data...
Loading historical data...

Documentation

Showing up to 5 results
|